Hourly Data Report for June 30, 2012

HALIFAX STANFIELD INT'L A
NOVA SCOTIA

44°52'48.060" N
63°30'00.050" W
145.40 m
8202250
71395
YHZ

Download Data

Hourly Data (June 2012)
Hourly Data Report for June 30, 2012
TIME
LST
Temp Definition
°C
Dew Point Definition
°C
Rel Hum Definition
%
Precip. Amount Definition
mm

Wind Dir Definition
10's deg

Wind Spd Definition
km/h
Visibility Definition
km
Stn Press Definition
kPa
Hmdx Definition


Wind Chill Definition


Weather Definition


00:00 17.7 17.7 100   21 26 1.2 98.66     Fog
01:00 17.7 17.7 100   20 19 1.0 98.63     Drizzle, Fog
02:00 17.4 17.4 100   20 17 1.0 98.59     Drizzle, Fog
03:00 17.5 17.5 100   19 15 1.0 98.48     Fog
04:00 17.6 17.6 100   17 17 0.4 98.47     Fog
05:00 17.3 17.3 100   17 13 0.4 98.46     Fog
06:00 17.2 17.2 100   20 11 0.4 98.46     Fog
07:00 17.2 17.2 100   22 11 0.4 98.54     Fog
08:00 16.9 16.9 100   21 11 0.4 98.54     Fog
09:00 17.4 17.4 100   21 9 1.2 98.56     Fog
10:00 20.4 18.3 88   25 11 12.9 98.55 27   Mainly Clear
11:00 23.7 19.5 77   26 13 24.1 98.56 31   Mainly Clear
12:00 25.5 19.8 71   31 13 24.1 98.55 33   Mainly Clear
13:00 27.1 19.3 62   30 6 24.1 98.55 34   Mainly Clear
14:00 28.3 20.4 62   22 13 24.1 98.56 36   Mainly Clear
15:00 28.3 20.7 63   22 17 24.1 98.54 36   Mostly Cloudy
16:00 28.4 19.3 58   21 19 24.1 98.54 35   Mainly Clear
17:00 27.2 19.4 62   17 22 24.1 98.54 34   Mainly Clear
18:00 25.5 17.3 60   19 19 24.1 98.55 31   Mostly Cloudy
19:00 24.3 15.5 58   18 20 24.1 98.60 29   Mainly Clear
20:00 22.3 14.9 63   21 20 24.1 98.68 26   Mainly Clear
21:00 20.1 14.0 68   21 22 24.1 98.71     Mainly Clear
22:00 18.4 14.1 76   21 17 24.1 98.73     Mainly Clear
23:00 17.1 14.1 83   20 13 24.1 98.75     Mainly Clear

Notes on Data Quality.

Legend

  • E = Estimated
  • M = Missing
  • NA = Not Available*
  • [empty] = Indicates an unobserved value
Date modified: